Retour au catalogue

NOAA 16 DEB

ActifPO
NORAD 42410·DEBRIS·🇺🇸 United States

Lancé Sep 21, 2000 depuis Vandenberg Space Force Base

Loading…

Prochains Passages (prochaines 24 heures)

TLE

FraisSource: Space-Track

Époque: Sep 13, 2026, 21:45 UTC

1 42410U 00055TE  26256.90668541  .00006682  00000-0  15045-2 0  9990
2 42410  98.8293  55.0463 0028544 178.8741 181.2525 14.56501439549677

Suivez NOAA 16 DEB en temps réel avec AllMySat

Download on the App Store